Location: *
(2.5500°S, 65.9667°W)
Time: 06:24:41
(UTC+00:00)

Explorer 7 - Pass Details

Date: 22 April 2024
Orbit: 467 x 625 km, 50.3° (Epoch: 26 May)

Event Time Altitude Azimuth Distance (km) Brightness Sun altitude
Rises 00:55:00 0° 290° (WNW) 2,651 11.2 -37.8°
Enters shadow 00:57:19 - 273° (W) 1,943 10.4 -38.3°
Reaches altitude 10° 00:58:16 10° 262° (W) 1,726 - -38.6°
Maximum altitude 01:00:09 13° 233° (SW) 1,517 - -39.0°
Drops below altitude 10° 01:02:01 10° 203° (SSW) 1,688 - -39.5°
Sets 01:05:09 0° 174° (S) 2,542 - -40.2°
